Yeovilton, United Kingdom

5:06 AM BST on August 21, 2017 (GMT +0100)
Yeovil Radar Navy

Weather History for EGDY - May, 2013

Change the Weather History Date:

Thursday, May 30, 2013

  Actual Average Record
Temperature  
Mean Temperature 58 °F -  
Max Temperature 65 °F 65 °F 77 °F (1997)
Min Temperature 52 °F 49 °F 39 °F (2006)
Degree Days  
Heating Degree Days 6    
Growing Degree Days 8 (Base 50)    
Moisture  
Dew Point 52 °F    
Average Humidity 77    
Maximum Humidity 94    
Minimum Humidity 54    
Precipitation  
Precipitation 0.00 in - - ()
Sea Level Pressure  
Sea Level Pressure 29.89 in    
Wind  
Wind Speed 10 mph ()    
Max Wind Speed 21 mph    
Max Gust Speed -    
Visibility 7.3 miles    
Events Rain    
Averages and records for this station are not official NWS values.
T = Trace of Precipitation, MM = Missing Value Source: Averaged Metar Reports

Daily Weather History Graph

Daily Weather History Graph

Search for Another Location

Airport or City:

Trip Planner

Search our weather history database for the weather conditions in past years. The results will help you decide how hot, cold, wet, or windy it might be!

Date:

Astronomy

May. 30, 2013 Rise Set
Actual Time 5:03 AM BST 9:13 PM BST
Civil Twilight 4:19 AM BST 9:57 PM BST
Nautical Twilight 3:15 AM BST 11:02 PM BST
Astronomical Twilight 1:40 AM BST 12:35 AM BST
Moon 12:43 AM BST (5/30) 11:20 AM BST (5/30)
Length of Visible Light 17h 38m
Length of Day
16h 10m
Waning Gibbous, 65% of the Moon is Illuminated
May 30
Waning Gibbous
May 31
Last Quarter
Jun 8
New
Jun 16
First Quarter
Jun 23
Full

Hourly Weather History & Observations

Time (BST) Temp. Dew Point Humidity Pressure Visibility Wind Dir Wind Speed Gust Speed Precip Events Conditions
12:50 AM 55 °F 52 °F 87% 29.83 in 10 mi NNW 8.1 mph - -   Overcast
12:50 AM 55.4 °F 51.8 °F 88% 29.83 in 6.2 mi NNW 8.1 mph - N/A   Overcast
1:50 AM 53.6 °F 51.8 °F 94% 29.83 in 3.1 mi WNW 6.9 mph - N/A Rain Light Rain
2:50 AM 53.6 °F 51.8 °F 94% 29.83 in 3.7 mi NW 8.1 mph - N/A   Haze
3:50 AM 54 °F 52 °F 92% 29.83 in 4 mi WNW 9.2 mph - - Rain Light Rain
3:50 AM 53.6 °F 51.8 °F 94% 29.80 in 3.7 mi WNW 9.2 mph - N/A   Haze
4:50 AM 53.6 °F 51.8 °F 94% 29.83 in 3.7 mi NNW 8.1 mph - N/A   Haze
5:50 AM 53.6 °F 51.8 °F 94% 29.83 in 3.7 mi WNW 9.2 mph - N/A Rain Light Rain
6:50 AM 54 °F 52 °F 91% 29.84 in 6 mi WNW 11.5 mph - - Rain Light Rain
6:50 AM 55.4 °F 51.8 °F 88% 29.83 in 5.6 mi WNW 11.5 mph - N/A   Haze
7:50 AM 55.4 °F 51.8 °F 88% 29.83 in 6.2 mi NW 10.4 mph - N/A   Mostly Cloudy
8:50 AM 57.2 °F 53.6 °F 88% 29.83 in 6.2 mi NW 12.7 mph - N/A   Mostly Cloudy
9:50 AM 58 °F 53 °F 80% 29.86 in 19 mi WNW 13.8 mph - -   Partly Cloudy
9:50 AM 59.0 °F 53.6 °F 82% 29.86 in 6.2 mi WNW 13.8 mph - N/A   Partly Cloudy
10:50 AM 62.6 °F 53.6 °F 72% 29.86 in 6.2 mi NNW 12.7 mph - N/A   Scattered Clouds
11:50 AM 62.6 °F 51.8 °F 68% 29.86 in 6.2 mi NNW 18.4 mph - N/A   Mostly Cloudy
12:40 PM 62.6 °F 51.8 °F 68% 29.86 in 6.2 mi North 16.1 mph - N/A   Scattered Clouds
12:50 PM 65 °F 53 °F 57% 29.89 in 12 mi NNW 15.0 mph - -   Partly Cloudy
12:50 PM 64.4 °F 53.6 °F 68% 29.89 in 6.2 mi NNW 15.0 mph - N/A   Scattered Clouds
1:50 PM 64.4 °F 53.6 °F 68% 29.89 in 6.2 mi North 17.3 mph - N/A   Scattered Clouds
2:50 PM 64.4 °F 50.0 °F 59% 29.89 in 6.2 mi North 20.7 mph - N/A   Scattered Clouds
3:50 PM 62 °F 50 °F 56% 29.91 in 16 mi North 15.0 mph - - Rain Light Rain Showers
3:50 PM 62.6 °F 50.0 °F 63% 29.89 in 6.2 mi North 15.0 mph - N/A Rain Light Rain Showers
4:50 PM 59.0 °F 50.0 °F 72% 29.92 in 6.2 mi North 11.5 mph - N/A Rain Light Rain Showers
5:50 PM 62.6 °F 51.8 °F 68% 29.92 in 6.2 mi North 15.0 mph - N/A   Mostly Cloudy
6:50 PM 62 °F 49 °F 54% 29.94 in 16 mi North 12.7 mph - -   Partly Cloudy
6:50 PM 62.6 °F 50.0 °F 63% 29.92 in 6.2 mi North 12.7 mph - N/A   Partly Cloudy
7:50 PM 60.8 °F 50.0 °F 68% 29.95 in 6.2 mi North 11.5 mph - N/A   Partly Cloudy
8:50 PM 60.8 °F 50.0 °F 68% 29.98 in 6.2 mi North 10.4 mph - N/A   Scattered Clouds
9:50 PM 58 °F 50 °F 68% 30.01 in 16 mi North 6.9 mph - -   Partly Cloudy
9:50 PM 59.0 °F 50.0 °F 72% 30.01 in 6.2 mi North 6.9 mph - N/A   Scattered Clouds
10:50 PM 57.2 °F 51.8 °F 82% 30.01 in 6.2 mi North 11.5 mph - N/A Rain Light Rain Showers
11:50 PM 55.4 °F 51.8 °F 88% 30.04 in 6.2 mi NNE 8.1 mph - N/A   Partly Cloudy